This is the latest recevied weather packets stored in our database for station/object VA3ZFM-10. If no packets are shown the sender has not sent any weather packets the latest 10 day(s).
| Time | Temp. | Humidity | Pressure | Rain* | Wind** | Luminosity | Snow |
|---|---|---|---|---|---|---|---|
| 1777561986 | 5.56° C | 66% | 1008.4 hPa | 0 mm | - | - | - |
| 1777561683 | 5.56° C | 66% | 1008.4 hPa | 0 mm | - | - | - |
| 1777561378 | 6.11° C | 67% | 1008.1 hPa | 0 mm | - | - | - |
| 1777561074 | 5.56° C | 68% | 1008.2 hPa | 0 mm | - | - | - |
| 1777560769 | 5.56° C | 67% | 1008.4 hPa | 0 mm | - | - | - |
| 1777560467 | 5° C | 69% | 1008.3 hPa | 0 mm | - | - | - |
| 1777560164 | 5° C | 69% | 1008.4 hPa | 0 mm | - | - | - |
| 1777559861 | 5.56° C | 69% | 1008.3 hPa | 0 mm | - | - | - |
| 1777559557 | 5° C | 69% | 1008.4 hPa | 0 mm | - | - | - |
| 1777559254 | 5° C | 70% | 1008.3 hPa | 0 mm | - | - | - |
| 1777558950 | 4.44° C | 71% | 1008.5 hPa | 0 mm | - | - | - |
| 1777558646 | 5° C | 71% | 1008.4 hPa | 0 mm | - | - | - |
| 1777558341 | 5° C | 71% | 1008.4 hPa | 0 mm | - | - | - |
| 1777558038 | 5.56° C | 72% | 1008.2 hPa | 0 mm | - | - | - |
| 1777557734 | 5° C | 72% | 1008.3 hPa | 0 mm | - | - | - |
| 1777557431 | 5° C | 72% | 1008.5 hPa | 0 mm | - | - | - |
| 1777557128 | 4.44° C | 73% | 1008.6 hPa | 0 mm | - | - | - |
| 1777556823 | 4.44° C | 73% | 1008.2 hPa | 0 mm | - | - | - |
| 1777556520 | 4.44° C | 73% | 1008.3 hPa | 0 mm | - | - | - |
| 1777556219 | 5° C | 73% | 1008.3 hPa | 0 mm | - | - | - |
| 1777555915 | 4.44° C | 74% | 1008.2 hPa | 0 mm | - | - | - |
| 1777555611 | 4.44° C | 73% | 1008 hPa | 0 mm | - | - | - |
| 1777555308 | 4.44° C | 75% | 1008.3 hPa | 0 mm | - | - | - |
| 1777555004 | 3.89° C | 76% | 1008.1 hPa | 0 mm | - | - | - |
| 1777554702 | 3.33° C | 77% | 1008.3 hPa | 0 mm | - | - | - |
* Rain latest hour (hover to see other rain measurements)
** Current wind speed in m/s (hover to see current wind gust speed)